Weather History for Tacoma, WA

Change the Weather History Date:

Friday, October 8, 2010

  Actual Average Record
Temperature  
Mean Temperature 60 °F -  
Max Temperature 68 °F 60 °F 75 °F (1972)
Min Temperature 53 °F 42 °F 30 °F (1985)
Degree Days  
Heating Degree Days 4    
Growing Degree Days 10 (Base 50)    
Moisture  
Dew Point 51 °F    
Average Humidity 73    
Maximum Humidity 96    
Minimum Humidity 52    
Precipitation  
Precipitation 0.09 in - - ()
Sea Level Pressure  
Sea Level Pressure 30.11 in    
Wind  
Wind Speed 4 mph (SSW)    
Max Wind Speed 10 mph    
Max Gust Speed -    
Visibility 9 miles    
Events Rain    
Averages and records for this station are not official NWS values.
T = Trace of Precipitation, MM = Missing Value Source: NWS Daily Summary

Daily Weather History Graph

Daily Weather History Graph

Search for Another Location

Airport:

Trip Planner

Search our weather history database for the weather conditions in past years. The results will help you decide how hot, cold, wet, or windy it might be!

Date:

Astronomy

Oct. 08, 2010 Rise Set
Actual Time 7:18 AM PDT 6:35 PM PDT
Civil Twilight 6:47 AM PDT 7:06 PM PDT
Nautical Twilight 6:12 AM PDT 7:41 PM PDT
Astronomical Twilight 5:36 AM PDT 8:16 PM PDT
Moon 8:42 AM PDT (10/8) 6:40 PM PDT (10/8)
Length of Visible Light 12h 18m
Length of Day
11h 17m
New Moon, 1% of the Moon is Illuminated
Oct 8
New Moon
Oct 14
First Quarter
Oct 22
Full
Oct 30
Last Quarter
Nov 5
New

Hourly Weather History & Observations

Time (PDT) Temp. Dew Point Humidity Pressure Visibility Wind Dir Wind Speed Gust Speed Precip Events Conditions
12:55 AM 55.8 °F 50.5 °F 83% 30.12 in 10.0 mi South 6.9 mph - N/A   Overcast
1:55 AM 53.2 °F 50.2 °F 89% 30.12 in 10.0 mi South 4.6 mph - N/A   Overcast
2:55 AM 53.4 °F 50.0 °F 88% 30.12 in 10.0 mi Calm Calm - N/A   Overcast
3:55 AM 54.0 °F 50.2 °F 87% 30.13 in 10.0 mi South 4.6 mph - N/A   Overcast
4:55 AM 54.1 °F 49.6 °F 85% 30.12 in 10.0 mi Calm Calm - N/A   Overcast
5:55 AM 55.2 °F 49.3 °F 80% 30.13 in 10.0 mi Calm Calm - N/A   Overcast
6:55 AM 53.4 °F 50.4 °F 89% 30.13 in 10.0 mi Calm Calm - N/A   Overcast
7:55 AM 53.8 °F 50.4 °F 88% 30.13 in 10.0 mi Calm Calm - N/A   Overcast
8:55 AM 55.2 °F 51.4 °F 87% 30.14 in 10.0 mi Calm Calm - N/A   Mostly Cloudy
9:55 AM 58.3 °F 50.5 °F 75% 30.15 in 10.0 mi Calm Calm - N/A   Mostly Cloudy
10:13 AM 59.0 °F 50.0 °F 72% 30.15 in 10.0 mi Calm Calm - N/A Rain Light Rain
10:15 AM 59.0 °F 50.0 °F 72% 30.15 in 10.0 mi Calm Calm - N/A   Overcast
10:28 AM 59.0 °F 51.8 °F 77% 30.15 in 10.0 mi Calm Calm - N/A Rain Light Rain
10:44 AM 60.8 °F 51.8 °F 72% 30.16 in 10.0 mi Calm Calm - N/A   Overcast
10:55 AM 59.7 °F 50.9 °F 73% 30.16 in 10.0 mi Calm Calm - 0.00 in   Overcast
11:55 AM 62.4 °F 51.6 °F 68% 30.15 in 10.0 mi Calm Calm - N/A   Overcast
12:55 PM 66.6 °F 50.9 °F 57% 30.13 in 10.0 mi SSW 10.4 mph - N/A   Mostly Cloudy
1:55 PM 66.9 °F 50.9 °F 56% 30.11 in 10.0 mi South 5.8 mph - N/A   Mostly Cloudy
2:55 PM 67.8 °F 50.7 °F 54% 30.09 in 10.0 mi SW 10.4 mph - N/A   Mostly Cloudy
3:10 PM 66.2 °F 50.0 °F 56% 30.09 in 2.5 mi SSW 8.1 mph - N/A   Haze
3:11 PM 66.2 °F 50.0 °F 56% 30.09 in 2.0 mi SW 8.1 mph - N/A   Haze
3:13 PM 66.2 °F 50.0 °F 56% 30.09 in 1.8 mi SW 5.8 mph - N/A   Haze
3:17 PM 66.2 °F 50.0 °F 56% 30.09 in 2.0 mi SW 9.2 mph - N/A   Haze
3:19 PM 66.2 °F 50.0 °F 56% 30.09 in 2.5 mi SW 9.2 mph - N/A   Haze
3:20 PM 68.0 °F 50.0 °F 52% 30.09 in 3.0 mi SW 9.2 mph - N/A   Haze
3:55 PM 66.0 °F 51.1 °F 59% 30.09 in 10.0 mi WSW 5.8 mph - N/A   Overcast
4:55 PM 65.3 °F 50.4 °F 58% 30.07 in 10.0 mi SW 9.2 mph - N/A   Mostly Cloudy
5:55 PM 63.3 °F 50.7 °F 63% 30.07 in 10.0 mi SW 3.5 mph - N/A   Partly Cloudy
6:55 PM 60.6 °F 50.9 °F 70% 30.08 in 10.0 mi Calm Calm - N/A   Mostly Cloudy
7:55 PM 57.7 °F 52.0 °F 81% 30.07 in 10.0 mi ESE 3.5 mph - N/A   Overcast
8:55 PM 57.2 °F 52.0 °F 83% 30.06 in 10.0 mi East 3.5 mph - N/A   Mostly Cloudy
9:55 PM 58.8 °F 51.4 °F 76% 30.05 in 10.0 mi Calm Calm - N/A   Scattered Clouds
10:07 PM 59.0 °F 51.8 °F 77% 30.06 in 10.0 mi West 4.6 mph - N/A Rain Light Rain
10:55 PM 56.1 °F 54.1 °F 93% 30.08 in 10.0 mi Calm Calm - 0.01 in Rain Light Rain
11:55 PM 55.9 °F 54.9 °F 96% 30.07 in 7.0 mi Calm Calm - 0.08 in Rain Light Rain